Temp
24 24 26 29 27 30 30 30 32 30 30 30 29 29 30 30 28 26 27 26 28 26 23 22 22 22 22 21 21 21 21 21 21 21 21 22 22 22 21 21 21 21 21 21 21 21 21 21 21
26 27 29 31 30 31 30 31 30 32 31 30 30 30 31 29 29 26 26 26 28 27 26 23 22 22 22 22 21 21 21 21 21 21 21 21 21 21 22 21 21 21 21 21 21 21 21 21 21
28 29 30 35 35 31 29 31 32 32 30 30 26 30 31 27 28 27 26 26 28 27 26 22 21 21 21 21 21 21 21 21 21 21 21 21 21 21 22 21 21 21 21 21 21 21 21 21 21
29 32 34 37 34 33 32 33 33 31 29 28 28 29 31 29 27 26 25 25 27 26 25 22 21 21 21 21 21 21 21 21 21 21 21 21 21 21 21 22 21 21 21 20 21 21 21 21 21
31 36 36 35 34 34 33 33 33 32 30 28 32 30 28 29 27 27 26 27 28 28 24 22 21 21 21 21 21 21 21 21 21 21 21 21 21 21 21 21 21 21 21 21 21 21 21 21 20
35 39 37 35 34 35 34 34 33 33 33 32 32 29 26 28 28 28 28 29 30 28 26 23 21 21 21 21 21 21 21 21 21 21 21 21 21 21 21 21 21 21 21 21 21 21 21 21 20
34 39 36 35 34 34 34 35 34 34 34 33 34 30 29 30 29 28 28 28 28 27 27 25 24 22 21 21 21 21 21 21 22 21 21 21 21 21 21 21 21 21 21 21 21 21 21 21 20
40 40 37 36 35 33 35 35 36 35 34 35 35 31 30 31 29 28 27 27 27 27 27 26 25 24 23 22 21 21 21 21 21 21 22 21 22 22 22 21 22 21 21 21 21 21 21 21 21
40 38 37 36 35 34 35 34 36 36 34 35 35 34 33 30 30 29 28 28 27 27 27 27 26 26 26 25 22 22 22 22 22 23 23 22 21 22 22 22 21 21 21 21 21 21 21 21 21
40 38 37 37 37 35 35 35 35 35 35 34 35 35 32 31 30 29 29 29 28 27 28 28 27 28 27 26 23 23 24 24 24 24 23 23 22 23 23 23 22 21 21 21 21 21 21 22 24
40 37 38 38 37 37 36 35 36 35 34 35 34 33 33 32 31 31 29 29 29 26 26 27 28 28 28 27 25 25 25 26 25 24 23 23 22 22 22 22 23 22 22 22 22 22 23 24 24
38 39 38 37 37 36 36 37 36 36 36 37 35 34 33 33 33 33 30 28 30 27 27 27 28 27 27 27 26 27 26 27 27 26 25 24 23 22 22 22 23 23 24 23 23 24 24 24 25
39 39 38 38 37 37 37 36 36 36 37 37 36 34 34 34 34 33 32 30 29 27 28 28 27 25 25 25 27 27 26 27 26 26 24 24 24 23 23 23 23 25 24 24 24 23 23 24 26
40 40 38 38 38 37 37 36 36 36 37 36 35 34 34 34 34 34 33 31 29 28 28 28 27 26 26 25 25 25 25 25 26 26 24 23 23 24 23 24 24 25 25 25 25 24 24 24 25
40 38 38 38 38 37 38 35 36 36 36 35 35 35 35 35 34 33 33 32 30 29 29 29 28 27 26 26 25 25 25 26 26 26 25 23 23 23 23 25 25 25 25 25 25 24 24 25 25
39 39 37 38 38 37 36 34 37 36 35 35 35 35 34 35 34 33 33 32 31 31 30 30 29 29 26 27 26 26 26 26 26 27 26 24 24 23 23 25 26 23 23 23 23 24 24 25 25
39 31 38 37 38 38 37 37 37 37 36 35 35 35 35 35 34 33 33 32 31 31 30 29 29 30 28 27 27 26 26 27 27 27 27 24 24 24 23 25 26 24 24 24 24 24 23 23 23
36 39 39 38 38 38 37 37 37 36 36 35 35 35 35 35 35 33 33 32 32 31 29 29 29 30 28 27 27 27 27 27 27 27 27 25 24 24 24 26 26 24 25 27 27 24 23 23 23
40 40 39 39 40 39 38 38 38 37 37 36 36 36 35 35 35 34 33 32 32 31 30 29 29 29 28 28 28 28 27 28 27 27 25 25 25 24 24 27 25 25 25 26 25 24 23 22 22
40 40 40 40 39 38 39 39 39 38 37 37 37 36 36 36 36 34 33 33 32 31 30 29 29 28 27 28 29 29 29 28 27 27 26 25 25 24 25 25 26 26 26 25 25 24 26 23 22
40 40 39 39 39 40 39 38 39 38 37 38 38 38 37 36 36 36 34 34 33 32 31 30 29 28 27 29 28 28 28 27 28 28 26 25 25 25 25 26 25 25 26 26 25 25 25 25 26
40 41 40 39 39 37 40 28 37 39 37 37 38 38 38 37 37 37 36 34 34 33 31 31 29 28 27 28 29 28 28 29 29 29 29 25 25 26 25 25 25 26 25 24 25 26 26 25 26
40 41 40 40 39 40 41 40 38 40 38 37 38 38 39 38 38 37 37 35 35 34 33 31 30 29 28 27 28 28 28 29 29 29 27 27 26 26 26 25 25 25 26 26 25 25 25 27 26
41 40 40 40 40 39 41 40 26 39 39 39 39 39 39 39 38 38 37 36 35 34 34 33 30 28 28 27 27 27 28 29 30 29 28 28 28 26 25 25 25 25 26 26 26 25 25 25 26
39 39 38 38 39 39 42 40 30 28 41 41 41 40 39 39 39 38 38 38 36 35 34 33 30 28 27 27 27 27 27 27 28 28 28 27 28 29 26 25 25 25 25 26 25 25 25 25 25
39 40 39 37 39 39 42 39 39 29 43 42 42 42 40 39 40 39 38 38 36 36 35 33 30 28 27 27 27 27 27 27 28 27 29 25 28 29 27 26 25 26 25 25 26 26 26 26 26
40 39 41 40 41 40 38 41 42 43 43 43 42 42 41 40 39 39 39 38 37 35 34 33 31 28 28 28 27 27 27 27 29 29 28 29 29 25 27 26 26 26 26 25 25 26 26 26 25
40 42 39 40 37 37 40 40 41 41 42 43 42 42 41 40 39 40 39 38 37 36 34 33 31 29 29 29 28 28 27 27 28 28 28 29 28 22 23 27 26 26 25 25 25 27 26 26 26
39 39 39 41 40 38 38 39 43 42 42 42 42 42 42 41 40 40 40 38 37 36 35 33 32 30 30 30 29 29 28 28 27 28 28 27 27 27 27 27 27 27 26 26 26 26 26 25 25
40 40 40 39 38 40 39 39 43 43 43 43 43 43 42 41 41 40 40 39 38 36 36 34 33 32 31 31 30 29 28 29 29 28 28 28 28 27 27 27 26 27 27 26 26 26 26 25 25
Height
760 763 762 759 780 767 782 783 767 779 780 779 782 784 783 783 793 816 802 807 809 814 819 823 825 826 829 831 833 834 835 835 836 837 836 836 836 836 837 837 837 837 839 839 839 841 842 844 844
760 762 758 748 775 779 792 773 781 773 775 778 782 784 779 792 788 801 807 810 810 816 820 825 827 829 831 833 834 836 837 838 839 839 839 838 838 838 838 838 839 839 840 841 842 843 845 846 846
757 756 755 740 748 780 797 774 774 772 779 781 796 784 780 800 797 802 809 813 813 816 820 827 830 832 834 835 837 838 838 840 841 841 842 842 841 841 841 840 841 841 843 844 846 847 848 848 849
754 748 735 745 763 762 769 768 768 778 785 787 790 795 787 795 801 806 812 816 817 822 824 829 831 834 836 837 839 841 840 841 842 843 843 843 843 843 842 842 844 844 846 847 848 850 851 851 852
749 730 749 762 766 759 762 763 766 777 783 788 780 793 799 798 804 808 812 815 815 819 826 831 833 835 838 839 840 842 842 841 843 844 844 844 845 845 845 845 845 847 849 850 852 853 854 854 854
739 716 754 774 771 760 759 759 765 771 771 777 783 795 807 802 805 808 811 812 813 819 827 832 835 837 838 840 841 842 844 842 843 844 844 845 846 847 847 847 847 849 851 852 853 855 857 857 857
745 730 760 767 774 771 764 753 762 766 771 775 771 793 797 799 803 808 812 815 818 822 827 832 836 838 840 840 842 842 843 843 842 844 845 846 847 847 848 847 849 850 852 854 854 856 858 859 860
718 726 752 757 772 781 762 756 754 761 769 765 766 791 797 796 803 809 816 820 823 825 827 831 835 838 840 840 841 843 842 843 843 844 845 846 846 846 847 848 850 852 853 855 856 857 859 860 862
714 741 761 761 768 772 759 766 755 756 769 768 767 774 785 797 802 809 815 820 824 827 828 830 834 836 838 840 841 842 842 842 842 842 844 845 843 845 847 848 849 851 854 855 857 858 859 860 861
723 744 757 746 751 764 762 764 765 769 771 775 771 775 789 796 802 807 812 816 822 824 826 828 832 832 836 837 840 841 841 840 842 842 842 844 845 846 847 847 849 851 853 855 857 858 859 859 860
727 755 746 746 748 751 760 766 760 769 778 773 778 782 789 793 798 802 811 813 817 825 827 828 828 832 832 836 839 841 840 840 840 842 843 842 844 845 846 847 848 850 852 855 857 858 859 858 859
744 736 742 748 748 755 761 758 764 762 762 762 771 780 786 791 794 796 805 813 814 821 825 827 829 832 832 834 837 836 838 838 839 840 843 843 844 842 844 845 847 848 850 852 855 856 856 857 858
738 740 741 745 748 751 755 761 764 766 759 760 770 779 785 788 790 794 800 807 814 821 821 824 827 832 834 836 835 835 837 837 838 840 841 843 843 844 844 845 846 847 848 850 852 854 856 857 857
728 734 742 744 749 751 758 761 762 764 759 763 771 777 781 784 787 791 796 806 812 817 820 823 827 830 833 835 836 836 838 838 838 840 841 842 843 843 844 844 845 846 848 849 849 853 855 856 857
729 747 744 747 749 757 749 772 769 759 761 768 772 776 779 782 786 791 795 802 810 814 818 820 824 828 832 834 835 836 837 836 837 839 839 840 841 842 843 843 843 846 847 848 850 853 854 855 855
733 735 761 748 748 749 758 785 758 756 763 769 771 775 778 781 784 790 795 799 805 809 814 818 821 824 830 831 834 835 835 836 836 836 838 840 840 841 841 842 843 845 847 849 850 851 852 852 853
741 786 751 756 742 749 759 765 755 754 759 768 770 772 775 778 782 788 793 798 802 806 813 817 819 820 825 830 832 833 835 834 835 836 836 838 840 842 842 841 842 844 845 846 848 849 850 851 851
768 748 741 749 743 745 757 755 752 753 756 764 766 768 772 775 778 785 790 795 799 805 812 815 818 819 823 828 830 832 833 833 834 835 835 837 840 842 842 841 842 843 843 843 844 848 850 850 850
728 733 742 736 729 744 749 747 746 748 752 757 759 763 767 771 775 781 787 792 796 803 809 814 815 819 823 825 827 828 831 832 834 834 834 837 839 840 841 840 842 843 843 843 845 848 849 849 849
731 736 736 730 731 742 737 740 731 738 744 746 751 755 761 765 769 776 784 788 793 799 805 810 813 818 822 822 824 824 827 829 831 831 833 835 837 838 839 839 840 842 842 843 844 846 845 847 848
734 733 745 740 732 727 733 749 740 731 736 737 739 742 750 758 763 769 777 782 789 794 800 806 811 815 819 820 823 826 827 829 830 830 832 833 835 838 839 840 840 841 838 839 842 845 846 846 845
738 716 727 739 744 762 731 823 749 730 737 739 737 738 742 750 757 762 769 777 782 789 796 802 808 812 817 820 821 824 826 825 825 826 826 831 833 836 838 839 841 840 837 834 841 843 843 845 845
732 720 728 731 738 729 724 743 738 724 737 734 733 732 733 739 748 754 760 768 775 783 790 797 803 809 812 816 818 822 824 822 824 823 824 828 830 833 836 838 840 841 839 840 842 843 844 843 843
714 725 733 731 733 753 717 728 804 732 727 723 719 723 727 730 740 748 753 761 770 777 784 790 798 805 809 813 817 820 822 821 819 819 821 825 825 825 831 836 838 840 840 840 841 843 843 843 842
730 742 764 769 759 753 702 726 775 776 710 706 706 712 718 724 732 740 746 753 763 771 778 784 793 801 806 810 814 817 820 821 818 817 828 821 828 824 820 831 837 838 840 841 842 843 843 843 843
733 734 751 777 756 741 701 737 729 748 694 694 695 694 708 718 723 733 742 748 757 765 773 780 788 797 802 806 810 814 818 818 817 816 824 823 823 822 820 829 829 835 839 840 841 841 842 841 843
727 739 713 728 720 736 743 708 690 687 692 690 690 695 704 710 718 726 736 744 752 762 770 777 785 793 798 802 807 811 814 816 815 812 813 821 824 810 812 837 838 830 836 838 839 839 841 841 842
716 701 741 731 764 767 733 728 724 708 701 694 692 698 698 704 714 720 728 738 748 758 766 775 783 789 794 798 804 808 811 814 815 814 813 812 820 802 817 838 841 830 831 836 838 837 837 839 839
727 731 722 716 726 754 755 736 684 696 697 700 694 694 691 698 708 715 723 734 744 754 762 771 780 786 791 795 799 803 807 811 814 815 815 817 828 831 835 837 838 829 830 834 837 836 837 837 837
706 716 719 738 745 720 729 736 681 682 683 688 688 688 687 692 701 710 719 729 738 747 756 765 775 781 783 785 793 799 803 807 810 813 814 815 819 827 832 831 827 825 830 833 834 834 833 835 835
Wind_Speed
16 14 14 8 4 2 8 8 15 17 10 11 6 4 11 12 9 10 23 14 21 20 18 16 17 17 16 15 13 13 12 11 11 10 10 11 11 12 12 12 10 13 13 14 16 17 16 16 18
15 14 12 8 4 7 8 11 15 11 15 14 11 2 3 14 15 18 16 18 20 20 19 16 16 17 15 14 14 12 12 10 10 10 11 10 11 11 11 12 11 11 14 16 18 18 17 17 17
11 13 6 4 9 9 9 11 15 16 9 7 4 5 5 11 15 10 22 18 15 18 21 17 16 15 14 14 13 11 11 10 9 9 9 9 9 10 11 13 11 16 17 19 17 18 18 18 18
12 7 9 8 16 16 14 17 15 16 9 4 9 11 17 16 9 18 24 20 16 16 17 17 16 14 14 13 11 9 9 9 7 8 7 7 7 9 9 12 12 14 17 16 17 17 17 17 17
15 8 9 11 15 18 17 17 13 15 10 9 14 12 11 9 20 23 22 20 20 23 17 16 16 14 11 10 11 8 8 9 6 6 5 5 4 5 7 8 13 13 14 15 15 15 15 15 15
10 4 10 10 14 15 14 17 15 6 16 14 14 15 6 12 23 22 21 18 18 20 18 16 15 13 12 9 9 8 6 6 5 3 3 3 1 2 3 5 7 11 13 13 13 12 12 12 12
18 7 12 13 13 13 12 10 12 13 13 14 15 14 16 21 22 23 19 17 13 16 20 17 14 12 11 10 7 7 4 4 3 2 1 2 1 1 2 4 7 8 11 12 12 11 10 9 9
0 5 12 13 11 13 8 9 10 12 14 14 15 8 18 21 23 22 20 17 16 16 15 15 14 12 10 8 7 7 5 5 3 3 2 2 1 2 3 6 7 10 10 11 12 11 10 9 8
11 2 8 12 12 11 11 13 10 11 13 11 3 18 23 25 24 21 19 18 16 14 15 14 13 12 9 7 8 7 6 7 5 3 3 3 6 3 4 7 8 11 10 11 11 11 10 9 9
5 11 11 13 14 13 13 11 11 13 13 10 11 23 27 27 25 23 22 20 18 15 16 14 12 12 10 10 10 7 11 8 4 3 1 2 2 3 4 8 9 9 11 11 11 10 10 11 10
15 11 10 14 14 15 13 12 15 13 11 13 16 21 22 24 23 23 19 16 19 17 12 11 10 10 8 9 7 6 10 4 7 4 4 3 1 1 6 8 9 9 11 10 10 10 11 11 8
11 16 14 15 13 14 13 14 10 14 9 15 15 19 20 19 19 20 19 19 18 18 17 15 13 9 7 7 8 11 10 4 5 5 3 2 1 2 4 7 7 10 11 10 11 11 9 13 14
13 12 14 14 13 12 12 9 11 5 4 12 17 17 18 17 19 19 21 21 17 17 15 15 13 12 9 8 6 3 3 3 3 5 5 2 2 3 6 7 8 7 10 11 11 11 12 8 9
7 14 14 12 11 11 10 10 10 7 9 13 17 18 17 17 18 17 18 19 16 16 16 14 14 13 11 10 6 3 4 6 6 3 5 4 3 3 5 6 9 9 8 9 13 11 9 10 10
11 14 12 12 11 10 8 10 9 12 11 14 16 16 16 15 17 16 16 20 18 18 17 18 15 14 13 10 9 8 7 4 6 5 4 4 4 4 4 4 6 6 6 7 8 8 8 10 13
12 18 14 11 11 8 11 9 10 14 14 15 17 16 15 15 17 16 16 16 18 17 18 16 14 16 13 12 9 8 7 6 5 6 4 6 5 4 5 5 5 6 8 6 7 9 10 9 8
14 12 19 13 12 6 13 11 13 15 15 15 17 16 15 15 16 18 18 17 19 19 18 17 15 16 15 12 10 8 7 7 5 4 5 7 5 5 5 4 6 7 9 10 10 9 9 9 10
17 15 3 11 16 11 10 4 14 15 16 16 17 17 17 17 17 20 19 19 20 18 18 17 16 13 13 14 10 9 9 7 7 6 4 5 4 6 6 5 5 6 8 8 8 6 7 7 9
11 1 3 6 11 12 12 12 15 17 17 17 18 17 18 18 20 23 21 21 20 19 19 18 16 15 14 13 13 12 12 11 9 8 6 7 8 7 7 7 7 6 5 1 4 5 6 5 6
8 9 10 9 6 9 10 13 18 17 19 18 18 18 19 19 20 22 24 24 23 22 21 19 17 15 16 15 13 12 13 11 6 9 7 7 8 8 8 8 8 8 6 6 6 7 4 1 5
12 15 3 2 8 14 10 12 13 19 16 17 18 18 18 20 21 22 25 25 24 24 22 21 19 18 17 12 12 10 6 3 9 9 8 9 8 8 7 7 3 6 11 9 8 7 4 3 3
18 9 3 6 11 7 13 5 26 19 19 18 19 18 19 21 22 22 25 26 27 25 23 22 21 19 17 15 12 13 12 14 11 11 10 9 10 9 7 6 6 7 8 7 7 8 6 3 3
16 2 6 6 13 18 12 8 14 16 18 17 20 20 20 21 22 22 23 28 27 26 25 24 22 21 18 18 13 14 13 10 9 10 11 8 9 8 8 7 7 7 7 5 4 4 4 4 8
12 6 11 14 13 13 15 10 8 12 14 17 19 20 21 21 21 22 26 29 26 26 24 24 23 22 21 19 17 15 13 10 10 9 11 13 13 12 9 7 8 7 5 2 5 6 6 7 3
15 13 11 12 12 13 3 2 13 16 5 7 17 20 21 21 21 21 21 23 27 26 25 23 24 23 23 22 19 17 13 13 10 11 10 8 12 15 17 11 9 9 6 5 6 6 6 5 5
20 19 14 12 13 13 13 5 9 34 9 7 6 14 20 22 21 21 20 23 25 25 23 21 25 24 24 23 22 20 17 16 16 15 15 11 5 15 19 12 10 7 6 6 6 6 7 6 6
21 18 22 24 19 16 17 10 13 14 6 9 11 7 17 22 22 22 22 26 27 24 23 23 24 23 24 24 23 21 19 18 16 14 12 11 7 3 19 7 6 6 6 7 6 6 5 5 6
20 15 16 16 17 15 10 11 3 7 2 7 11 7 15 19 23 21 21 26 26 25 25 26 25 24 24 23 21 20 19 17 13 11 11 12 7 21 2 7 6 6 6 8 8 6 9 7 8
13 17 13 18 16 15 13 8 4 9 3 3 2 6 10 18 22 21 19 26 27 28 28 28 26 23 23 22 20 20 19 18 16 14 12 11 4 2 6 7 6 4 6 7 7 7 5 7 9
21 20 21 14 17 15 12 6 6 3 3 2 4 4 10 16 21 21 20 25 29 30 30 29 27 25 27 27 24 21 20 18 18 17 14 11 8 7 7 6 3 3 5 5 6 8 8 7 9
Wind_Direction
172 176 201 210 226 84 106 110 119 121 106 96 179 131 60 43 52 92 135 132 130 128 129 133 142 139 136 130 127 119 111 105 99 90 80 79 82 87 99 98 98 101 121 126 120 112 110 111 108
173 184 222 255 220 115 91 112 121 109 104 122 83 339 63 58 86 115 124 146 135 129 133 134 140 140 137 131 123 117 110 104 96 86 80 73 75 80 93 99 100 102 121 125 121 112 109 109 109
211 205 262 224 63 91 121 143 134 109 117 85 82 332 25 112 113 111 130 142 140 130 121 128 132 134 130 127 124 123 113 104 95 90 80 77 74 64 79 95 96 100 112 117 114 113 108 108 107
187 216 248 64 69 102 126 129 128 111 108 70 114 94 94 105 100 130 137 139 134 139 131 136 132 131 133 133 126 125 117 108 104 98 93 79 76 75 70 94 102 102 120 119 120 116 110 109 108
244 252 84 93 83 103 121 143 164 136 138 168 151 118 102 91 127 136 137 152 147 148 130 140 137 135 134 139 131 127 123 119 111 100 91 86 78 79 79 74 109 116 117 123 124 122 116 112 111
261 243 117 101 98 101 119 143 140 119 140 120 127 125 110 134 140 143 149 150 144 130 142 148 148 144 143 143 139 136 139 127 120 110 98 87 79 101 101 100 96 124 130 131 136 136 127 119 113
240 77 97 107 112 112 125 149 160 152 135 145 128 117 134 160 145 146 145 145 129 141 149 154 158 156 155 157 162 156 172 169 159 150 128 54 16 245 186 146 141 134 143 143 144 149 147 139 130
341 108 124 128 114 110 134 149 134 148 95 120 127 130 149 145 148 147 148 153 156 160 150 161 167 172 177 183 189 194 190 218 216 227 220 160 353 156 183 166 153 154 151 153 149 148 152 158 160
271 128 96 126 129 125 123 137 141 91 135 163 125 140 135 147 148 146 153 157 161 171 170 171 176 184 187 188 202 209 209 229 227 243 201 223 205 87 178 178 155 160 164 161 161 158 161 166 171
224 65 75 80 112 125 130 139 130 151 139 130 142 114 142 154 155 163 165 166 175 174 180 178 187 179 184 198 184 206 213 217 197 251 174 240 77 172 136 161 156 153 165 168 171 178 183 181 169
92 106 105 106 118 131 129 130 153 148 159 153 138 143 154 161 168 161 172 167 171 178 190 196 173 191 182 186 183 203 207 207 185 184 229 96 100 110 171 153 159 154 162 173 175 186 195 207 231
97 97 101 109 131 130 139 140 156 180 164 157 150 153 163 171 175 172 163 175 179 174 179 193 180 183 222 159 199 206 187 193 171 153 188 164 181 162 162 170 173 182 163 171 188 195 223 213 200
120 105 115 128 134 142 136 148 136 146 180 146 152 161 171 180 177 178 171 171 174 177 189 182 180 182 192 205 205 171 140 202 165 164 179 176 178 170 174 155 170 182 179 162 179 197 204 200 205
129 121 121 142 146 136 159 136 175 150 148 153 159 172 179 186 181 174 172 162 181 183 181 179 184 179 186 191 195 180 189 193 177 147 171 161 179 178 157 161 171 175 179 193 176 181 198 206 219
142 135 141 152 161 155 168 153 221 153 156 160 169 176 182 186 182 179 184 169 182 184 180 178 184 178 182 188 188 179 203 232 192 165 166 188 181 186 176 172 130 168 187 172 186 182 210 200 210
205 166 157 150 163 160 192 176 178 165 170 170 174 179 183 186 183 182 184 183 175 183 172 174 183 170 180 180 184 196 179 205 209 182 175 186 199 182 172 181 165 177 193 185 189 190 201 215 223
194 292 137 152 183 160 208 140 153 177 179 176 182 182 185 185 187 179 181 186 169 175 173 182 183 181 170 174 193 191 206 197 207 199 200 162 179 192 182 201 163 176 188 181 186 179 198 223 227
276 150 160 147 169 193 201 153 161 186 190 184 190 185 188 190 189 176 180 187 171 173 175 190 179 180 173 172 203 203 206 209 182 200 178 155 180 184 199 209 178 206 243 183 177 156 182 215 215
228 286 189 120 126 197 211 223 173 182 198 189 194 190 192 194 187 177 185 180 177 176 180 187 188 181 186 200 195 203 202 201 192 187 173 188 196 189 214 198 190 215 229 147 182 192 225 203 191
236 234 186 123 160 219 217 221 165 187 201 198 198 189 196 193 186 188 188 182 184 181 180 185 192 182 197 195 207 206 201 192 180 197 192 203 204 211 201 247 177 192 212 214 196 202 201 42 206
240 251 178 37 168 222 227 229 204 181 199 207 205 196 193 196 198 190 189 190 190 185 186 188 191 188 196 215 198 199 202 164 210 209 195 205 206 207 207 202 257 198 221 190 176 195 210 257 151
251 221 99 242 246 241 239 113 235 181 187 201 205 205 194 194 198 192 190 195 192 189 190 191 192 194 195 200 191 189 199 202 201 203 176 199 196 206 198 193 215 235 264 179 169 191 219 159 203
265 235 250 248 262 267 217 261 132 170 178 198 209 205 205 189 194 201 195 190 198 191 192 192 191 194 195 195 206 188 221 202 192 228 132 195 192 198 199 194 209 220 244 177 234 132 231 205 278
278 236 246 251 252 267 255 214 165 198 171 187 193 210 205 196 195 198 199 189 198 193 195 191 185 190 194 194 197 198 202 228 211 200 193 197 195 183 187 196 198 206 229 178 205 213 218 247 268
235 235 235 221 224 242 202 258 134 312 190 117 175 188 202 204 190 194 199 195 187 194 191 191 174 187 191 193 196 198 203 213 228 220 217 342 219 193 164 175 185 191 202 191 207 217 228 238 250
210 236 247 235 242 241 142 200 156 193 152 127 113 172 189 195 192 191 195 196 184 190 189 191 173 186 190 191 195 198 199 203 215 228 237 217 270 198 140 158 164 182 195 203 206 219 227 223 242
241 216 247 269 279 283 202 179 148 209 144 160 136 168 176 189 197 189 186 193 186 188 186 190 179 185 189 192 194 196 199 212 215 236 233 239 242 188 121 141 173 160 198 211 211 231 225 243 237
242 249 224 251 272 273 270 232 204 143 51 2 115 163 169 186 191 190 187 190 184 184 185 188 180 184 190 192 194 197 200 206 218 220 237 267 352 106 128 183 196 170 198 209 221 237 210 220 244
204 244 254 260 222 257 264 256 212 109 135 272 125 206 168 176 185 190 190 185 180 182 180 181 182 185 189 193 192 193 201 202 208 216 221 237 208 125 179 199 208 193 203 212 225 261 266 234 245
243 216 232 241 249 262 267 250 92 121 130 275 311 160 160 175 180 187 186 181 184 183 183 182 185 186 189 188 184 193 195 201 202 215 212 220 225 196 191 204 195 196 214 223 233 254 280 269 270